Time,TemperatureF,DewpointF,PressureIn,WindDirection,WindDirectionDegrees,WindSpeedMPH,WindSpeedGustMPH,Humidity,HourlyPrecipIn,Conditions,Clouds,dailyrainin,SoftwareType,DateUTC
2015-03-03 00:02:00,59.6,58.2,30.15,SSW,212,0.0,0.0,95,0.00,,,0.00,Wunderground v.1.15,2015-03-03 05:02:00,
2015-03-03 00:12:00,59.5,58.1,30.15,SSW,212,0.0,0.0,95,0.00,,,0.00,Wunderground v.1.15,2015-03-03 05:12:00,
2015-03-03 00:22:00,59.6,57.9,30.14,SSW,212,0.0,0.0,94,0.00,,,0.00,Wunderground v.1.15,2015-03-03 05:22:00,
2015-03-03 00:32:00,59.6,57.9,30.14,SSW,212,0.0,0.0,94,0.00,,,0.00,Wunderground v.1.15,2015-03-03 05:32:00,
2015-03-03 00:42:00,59.7,57.7,30.13,SSW,212,0.0,0.0,93,0.00,,,0.00,Wunderground v.1.15,2015-03-03 05:42:00,
2015-03-03 00:52:00,59.5,57.5,30.13,SSW,212,0.0,0.0,93,0.00,,,0.00,Wunderground v.1.15,2015-03-03 05:52:00,
2015-03-03 01:02:00,59.6,57.3,30.13,SSW,212,0.0,0.0,92,0.00,,,0.00,Wunderground v.1.15,2015-03-03 06:02:00,
2015-03-03 01:12:00,59.6,57.3,30.14,SSW,212,0.0,0.0,92,0.00,,,0.00,Wunderground v.1.15,2015-03-03 06:12:00,
2015-03-03 01:22:00,59.6,57.3,30.15,SSW,212,0.0,0.0,92,0.00,,,0.00,Wunderground v.1.15,2015-03-03 06:22:00,
2015-03-03 01:32:00,59.3,57.0,30.15,SSW,212,0.0,0.0,92,0.00,,,0.00,Wunderground v.1.15,2015-03-03 06:32:00,
2015-03-03 01:42:00,59.0,57.0,30.15,SSW,212,0.0,0.0,93,0.00,,,0.00,Wunderground v.1.15,2015-03-03 06:42:00,
2015-03-03 01:52:00,59.0,57.0,30.14,SSW,212,0.0,0.0,93,0.00,,,0.00,Wunderground v.1.15,2015-03-03 06:52:00,
2015-03-03 02:02:00,59.0,57.0,30.14,SSW,212,0.0,0.0,93,0.00,,,0.00,Wunderground v.1.15,2015-03-03 07:02:00,
2015-03-03 02:12:00,59.0,57.0,30.15,SSW,212,0.0,0.0,93,0.00,,,0.00,Wunderground v.1.15,2015-03-03 07:12:00,
2015-03-03 02:21:00,59.0,57.0,30.14,SSW,212,0.0,0.0,93,0.00,,,0.00,Wunderground v.1.15,2015-03-03 07:21:00,
2015-03-03 02:31:00,58.7,57.0,30.14,SSW,212,0.0,0.0,94,0.00,,,0.00,Wunderground v.1.15,2015-03-03 07:31:00,
2015-03-03 02:41:00,58.7,57.0,30.13,SSW,212,0.0,0.0,94,0.00,,,0.00,Wunderground v.1.15,2015-03-03 07:41:00,
2015-03-03 02:51:00,58.6,56.9,30.12,SSW,212,0.0,0.0,94,0.00,,,0.00,Wunderground v.1.15,2015-03-03 07:51:00,
2015-03-03 03:01:00,58.6,56.6,30.12,SSW,212,0.0,0.0,93,0.00,,,0.00,Wunderground v.1.15,2015-03-03 08:01:00,
2015-03-03 03:12:00,58.6,56.6,30.13,SW,218,0.0,0.0,93,0.00,,,0.00,Wunderground v.1.15,2015-03-03 08:12:00,
2015-03-03 03:22:00,58.6,56.6,30.13,SW,218,0.0,0.0,93,0.00,,,0.00,Wunderground v.1.15,2015-03-03 08:22:00,
2015-03-03 03:33:00,58.6,56.6,30.13,SW,218,0.0,0.0,93,0.00,,,0.00,Wunderground v.1.15,2015-03-03 08:33:00,
2015-03-03 03:42:00,58.6,56.6,30.12,SW,218,0.0,0.0,93,0.00,,,0.00,Wunderground v.1.15,2015-03-03 08:42:00,
2015-03-03 03:52:00,58.5,56.5,30.13,SW,218,0.0,0.0,93,0.00,,,0.00,Wunderground v.1.15,2015-03-03 08:52:00,
2015-03-03 04:02:00,58.4,56.4,30.13,SW,218,0.0,0.0,93,0.00,,,0.00,Wunderground v.1.15,2015-03-03 09:02:00,
2015-03-03 04:12:00,58.3,56.3,30.13,SW,217,0.0,0.0,93,0.00,,,0.00,Wunderground v.1.15,2015-03-03 09:12:00,
2015-03-03 04:22:00,58.3,56.3,30.13,SW,217,0.0,0.0,93,0.00,,,0.00,Wunderground v.1.15,2015-03-03 09:22:00,
2015-03-03 04:32:00,58.2,56.2,30.13,SE,138,0.0,0.0,93,0.00,,,0.00,Wunderground v.1.15,2015-03-03 09:32:00,
2015-03-03 04:42:00,58.2,55.9,30.13,East,93,0.0,0.0,92,0.00,,,0.00,Wunderground v.1.15,2015-03-03 09:42:00,
2015-03-03 04:52:00,58.1,55.8,30.14,East,93,0.0,0.0,92,0.00,,,0.00,Wunderground v.1.15,2015-03-03 09:52:00,
2015-03-03 05:02:00,58.1,55.8,30.14,East,93,0.0,2.0,92,0.00,,,0.00,Wunderground v.1.15,2015-03-03 10:02:00,
2015-03-03 05:12:00,58.2,55.9,30.14,East,98,0.0,0.0,92,0.00,,,0.00,Wunderground v.1.15,2015-03-03 10:12:00,
2015-03-03 05:22:00,58.2,55.9,30.14,East,93,0.0,0.0,92,0.00,,,0.00,Wunderground v.1.15,2015-03-03 10:22:00,
2015-03-03 05:32:00,58.1,55.8,30.14,East,99,0.0,0.0,92,0.00,,,0.00,Wunderground v.1.15,2015-03-03 10:32:00,
2015-03-03 05:42:00,58.0,55.7,30.15,East,97,0.0,0.0,92,0.00,,,0.00,Wunderground v.1.15,2015-03-03 10:42:00,
2015-03-03 05:52:00,57.8,55.5,30.16,East,99,0.0,0.0,92,0.00,,,0.00,Wunderground v.1.15,2015-03-03 10:52:00,
2015-03-03 06:02:00,57.7,55.4,30.16,East,91,0.0,0.0,92,0.00,,,0.00,Wunderground v.1.15,2015-03-03 11:02:00,
2015-03-03 06:12:00,57.5,55.2,30.16,ENE,74,0.0,0.0,92,0.00,,,0.00,Wunderground v.1.15,2015-03-03 11:12:00,
2015-03-03 06:22:00,57.4,55.1,30.16,ENE,74,0.0,0.0,92,0.00,,,0.00,Wunderground v.1.15,2015-03-03 11:22:00,
2015-03-03 06:32:00,57.3,55.0,30.16,East,82,0.0,5.0,92,0.00,,,0.00,Wunderground v.1.15,2015-03-03 11:32:00,
2015-03-03 06:42:00,57.3,55.3,30.16,East,85,1.0,1.0,93,0.00,,,0.00,Wunderground v.1.15,2015-03-03 11:42:00,
2015-03-03 06:52:00,57.3,55.3,30.16,East,86,1.0,1.0,93,0.00,,,0.00,Wunderground v.1.15,2015-03-03 11:52:00,
2015-03-03 07:02:00,57.1,55.1,30.16,East,86,0.0,0.0,93,0.00,,,0.00,Wunderground v.1.15,2015-03-03 12:02:00,
2015-03-03 07:12:00,57.0,55.3,30.15,East,85,0.0,0.0,94,0.00,,,0.00,Wunderground v.1.15,2015-03-03 12:12:00,
2015-03-03 07:22:00,56.9,55.5,30.16,East,93,1.0,1.0,95,0.00,,,0.00,Wunderground v.1.15,2015-03-03 12:22:00,
2015-03-03 07:32:00,56.7,55.3,30.16,East,93,0.0,0.0,95,0.00,,,0.00,Wunderground v.1.15,2015-03-03 12:32:00,
2015-03-03 07:42:00,56.6,55.5,30.16,East,93,1.0,1.0,96,0.00,,,0.00,Wunderground v.1.15,2015-03-03 12:42:00,
2015-03-03 07:52:00,56.4,55.3,30.17,East,96,0.0,0.0,96,0.00,,,0.00,Wunderground v.1.15,2015-03-03 12:52:00,
2015-03-03 08:01:00,56.4,55.3,30.17,East,94,0.0,0.0,96,0.00,,,0.00,Wunderground v.1.15,2015-03-03 13:01:00,
2015-03-03 08:12:00,56.2,55.1,30.18,East,94,0.0,0.0,96,0.00,,,0.00,Wunderground v.1.15,2015-03-03 13:12:00,
2015-03-03 08:22:00,56.2,55.1,30.18,East,87,0.0,0.0,96,0.00,,,0.00,Wunderground v.1.15,2015-03-03 13:22:00,
2015-03-03 08:31:00,56.1,55.3,30.18,East,88,0.0,0.0,97,0.00,,,0.00,Wunderground v.1.15,2015-03-03 13:31:00,
2015-03-03 08:41:00,56.1,55.3,30.18,East,91,0.0,0.0,97,0.00,,,0.00,Wunderground v.1.15,2015-03-03 13:41:00,
2015-03-03 08:52:00,56.1,55.3,30.18,East,96,1.0,1.0,97,0.00,,,0.00,Wunderground v.1.15,2015-03-03 13:52:00,
2015-03-03 09:02:00,56.1,55.3,30.18,East,101,0.0,0.0,97,0.00,,,0.00,Wunderground v.1.15,2015-03-03 14:02:00,
2015-03-03 09:11:00,56.0,55.2,30.19,East,101,1.0,1.0,97,0.00,,,0.00,Wunderground v.1.15,2015-03-03 14:11:00,
2015-03-03 09:22:00,55.9,55.1,30.19,East,101,0.0,0.0,97,0.00,,,0.00,Wunderground v.1.15,2015-03-03 14:22:00,
2015-03-03 09:32:00,55.8,55.0,30.19,ESE,108,1.0,1.0,97,0.00,,,0.00,Wunderground v.1.15,2015-03-03 14:32:00,
2015-03-03 09:42:00,55.7,54.9,30.19,ESE,108,0.0,0.0,97,0.00,,,0.00,Wunderground v.1.15,2015-03-03 14:42:00,
2015-03-03 09:53:00,55.8,55.2,30.19,ESE,108,1.0,1.0,98,0.00,,,0.00,Wunderground v.1.15,2015-03-03 14:53:00,
2015-03-03 10:03:00,55.7,55.1,30.19,ESE,108,0.0,0.0,98,0.00,,,0.00,Wunderground v.1.15,2015-03-03 15:03:00,
2015-03-03 10:12:00,55.6,55.0,30.19,ESE,108,0.0,3.0,98,0.00,,,0.00,Wunderground v.1.15,2015-03-03 15:12:00,
2015-03-03 10:22:00,55.7,55.1,30.18,ESE,108,0.0,0.0,98,0.00,,,0.01,Wunderground v.1.15,2015-03-03 15:22:00,
2015-03-03 10:32:00,55.8,55.2,30.18,ESE,107,0.0,0.0,98,0.00,,,0.01,Wunderground v.1.15,2015-03-03 15:32:00,
2015-03-03 10:42:00,55.9,55.3,30.18,ESE,107,0.0,0.0,98,0.00,,,0.01,Wunderground v.1.15,2015-03-03 15:42:00,
2015-03-03 10:52:00,55.9,55.3,30.18,ESE,107,0.0,0.0,98,0.00,,,0.01,Wunderground v.1.15,2015-03-03 15:52:00,
2015-03-03 11:02:00,56.0,55.4,30.18,ESE,107,0.0,0.0,98,0.00,,,0.01,Wunderground v.1.15,2015-03-03 16:02:00,
2015-03-03 11:12:00,56.0,55.4,30.18,ESE,107,0.0,0.0,98,0.00,,,0.01,Wunderground v.1.15,2015-03-03 16:12:00,
2015-03-03 11:22:00,56.0,55.4,30.17,ESE,107,0.0,2.0,98,0.00,,,0.01,Wunderground v.1.15,2015-03-03 16:22:00,
2015-03-03 11:32:00,56.0,55.4,30.17,ESE,107,0.0,0.0,98,0.00,,,0.01,Wunderground v.1.15,2015-03-03 16:32:00,
2015-03-03 11:42:00,56.0,55.4,30.17,ESE,107,0.0,0.0,98,0.00,,,0.01,Wunderground v.1.15,2015-03-03 16:42:00,
2015-03-03 11:52:00,55.9,55.3,30.18,ESE,107,0.0,0.0,98,0.00,,,0.01,Wunderground v.1.15,2015-03-03 16:52:00,
2015-03-03 12:02:00,56.0,55.4,30.18,ESE,107,0.0,0.0,98,0.00,,,0.01,Wunderground v.1.15,2015-03-03 17:02:00,
2015-03-03 12:12:00,56.0,55.4,30.17,ESE,107,0.0,0.0,98,0.00,,,0.02,Wunderground v.1.15,2015-03-03 17:12:00,
2015-03-03 12:22:00,55.9,55.3,30.16,ESE,107,0.0,0.0,98,0.07,,,0.03,Wunderground v.1.15,2015-03-03 17:22:00,
2015-03-03 12:32:00,56.0,55.4,30.16,ESE,107,0.0,0.0,98,0.04,,,0.03,Wunderground v.1.15,2015-03-03 17:32:00,
2015-03-03 12:42:00,56.0,55.4,30.16,ESE,107,0.0,0.0,98,0.04,,,0.04,Wunderground v.1.15,2015-03-03 17:42:00,
2015-03-03 12:52:00,55.9,55.3,30.15,ESE,107,0.0,0.0,98,0.06,,,0.05,Wunderground v.1.15,2015-03-03 17:52:00,
2015-03-03 13:02:00,55.7,55.1,30.15,ESE,107,0.0,0.0,98,0.00,,,0.05,Wunderground v.1.15,2015-03-03 18:02:00,
2015-03-03 13:12:00,55.5,54.9,30.15,ESE,107,0.0,0.0,98,0.00,,,0.05,Wunderground v.1.15,2015-03-03 18:12:00,
2015-03-03 13:22:00,55.5,54.9,30.13,ESE,107,0.0,0.0,98,0.00,,,0.05,Wunderground v.1.15,2015-03-03 18:22:00,
2015-03-03 13:32:00,55.6,55.0,30.13,ESE,107,0.0,0.0,98,0.00,,,0.05,Wunderground v.1.15,2015-03-03 18:32:00,
2015-03-03 13:42:00,55.4,54.8,30.13,ESE,103,0.0,0.0,98,0.00,,,0.05,Wunderground v.1.15,2015-03-03 18:42:00,
2015-03-03 13:52:00,55.3,54.7,30.12,ESE,103,0.0,0.0,98,0.00,,,0.05,Wunderground v.1.15,2015-03-03 18:52:00,
2015-03-03 14:01:00,55.1,54.5,30.12,ESE,103,0.0,0.0,98,0.00,,,0.05,Wunderground v.1.15,2015-03-03 19:01:00,
2015-03-03 14:12:00,54.9,54.3,30.11,ESE,103,0.0,0.0,98,0.00,,,0.05,Wunderground v.1.15,2015-03-03 19:12:00,
2015-03-03 14:22:00,55.0,54.4,30.11,ESE,103,0.0,0.0,98,0.00,,,0.05,Wunderground v.1.15,2015-03-03 19:22:00,
2015-03-03 14:32:00,55.0,54.4,30.11,ESE,103,1.0,1.0,98,0.00,,,0.05,Wunderground v.1.15,2015-03-03 19:32:00,
2015-03-03 14:41:00,54.9,54.3,30.11,ESE,103,0.0,0.0,98,0.00,,,0.05,Wunderground v.1.15,2015-03-03 19:41:00,
2015-03-03 14:52:00,54.8,54.2,30.10,ESE,103,0.0,0.0,98,0.00,,,0.06,Wunderground v.1.15,2015-03-03 19:52:00,
2015-03-03 15:02:00,54.7,54.1,30.10,ESE,103,0.0,0.0,98,0.00,,,0.06,Wunderground v.1.15,2015-03-03 20:02:00,
2015-03-03 15:11:00,54.5,53.9,30.10,ESE,103,0.0,0.0,98,0.00,,,0.06,Wunderground v.1.15,2015-03-03 20:11:00,
2015-03-03 15:22:00,54.6,54.0,30.10,ESE,103,0.0,0.0,98,0.00,,,0.06,Wunderground v.1.15,2015-03-03 20:22:00,
2015-03-03 15:33:00,54.5,53.9,30.10,ESE,103,0.0,0.0,98,0.00,,,0.06,Wunderground v.1.15,2015-03-03 20:33:00,
2015-03-03 15:42:00,54.6,54.0,30.10,ESE,103,0.0,0.0,98,0.00,,,0.06,Wunderground v.1.15,2015-03-03 20:42:00,
2015-03-03 15:53:00,54.5,53.9,30.09,East,101,0.0,0.0,98,0.00,,,0.06,Wunderground v.1.15,2015-03-03 20:53:00,
2015-03-03 16:02:00,53.9,53.3,30.09,East,98,1.0,2.0,98,0.00,,,0.06,Wunderground v.1.15,2015-03-03 21:02:00,
2015-03-03 16:12:00,54.1,53.5,30.08,East,98,0.0,0.0,98,0.00,,,0.06,Wunderground v.1.15,2015-03-03 21:12:00,
2015-03-03 16:22:00,54.2,53.6,30.08,East,98,0.0,0.0,98,0.00,,,0.06,Wunderground v.1.15,2015-03-03 21:22:00,
2015-03-03 16:32:00,54.2,53.6,30.08,East,98,0.0,0.0,98,0.00,,,0.06,Wunderground v.1.15,2015-03-03 21:32:00,